Location: *
(10.5081°N, 66.9194°W)
Time: 02:50:12
(UTC+00:00)

Meteor 2-15 - Pass Details

Date: 30 March 2020
Orbit: 937 x 954 km, 82.5° (Epoch: 24 May)

Event Time Altitude Azimuth Distance (km) Brightness Sun altitude
Rises 23:38:03 0° 177° (S) 3,601 7.4 -15.4°
Reaches altitude 10° 23:40:34 10° 174° (S) 2,654 6.6 -16.0°
Maximum altitude 23:46:34 66° 93° (E) 1,019 4.3 -17.5°
Drops below altitude 10° 23:52:32 10° 12° (NNE) 2,644 6.7 -18.9°
Sets 23:55:02 0° 10° (N) 3,586 7.5 -19.5°
